Wind_Speed
6 5 5 4 3 2 2 2 2 3 3 3 2 2 2 2 2 2 2 2 2 2 1 1 2 2 3 3 3 3 2 3 4 4 5 5 5 5 5 5 5 5 5
6 6 5 4 4 3 2 2 3 3 3 3 3 2 2 2 2 2 2 2 2 1 1 1 1 2 3 3 4 4 4 4 4 5 5 6 6 6 6 6 6 7 7
6 6 6 5 4 4 3 3 3 3 3 3 3 3 3 2 2 3 3 3 3 2 1 1 1 2 3 4 4 5 5 5 5 5 5 5 6 6 7 8 8 8 8
7 6 6 6 5 4 4 3 3 3 3 3 3 3 3 3 3 3 3 3 3 3 3 2 3 3 3 4 4 5 6 6 5 6 6 7 7 7 7 8 8 9 9
8 7 7 6 6 5 4 4 4 4 4 4 4 4 4 4 4 4 4 4 5 4 4 4 4 4 4 4 4 5 5 6 6 6 6 7 7 7 8 8 9 9 9
9 9 8 8 7 6 6 6 6 6 5 5 5 6 6 6 6 6 5 6 6 5 5 5 5 5 5 5 5 6 6 6 7 7 7 8 9 9 9 9 10 10 11
9 9 9 9 8 8 7 7 7 7 6 6 7 7 7 7 7 7 7 7 8 7 7 7 7 7 7 7 7 7 8 8 9 9 9 9 10 11 11 11 12 12 12
8 10 10 10 10 9 8 8 8 8 8 8 8 8 9 8 8 8 8 9 9 9 9 9 9 9 8 8 8 8 9 10 10 10 10 11 11 12 12 12 13 13 14
9 10 10 11 11 11 9 9 9 9 9 9 9 9 9 10 10 10 10 10 10 10 10 11 10 10 10 10 10 10 10 11 11 11 12 12 13 14 14 14 15 15 16
10 10 11 11 11 11 10 10 10 10 10 10 10 10 10 10 10 11 11 11 11 11 12 12 11 12 12 13 13 12 12 13 13 14 14 14 15 15 16 16 17 17 18
10 11 11 12 12 11 11 11 11 11 11 11 10 11 11 11 11 11 11 12 12 13 13 14 14 15 14 14 15 15 15 15 15 16 16 17 17 17 18 18 19 19 20
9 10 11 12 12 12 12 12 12 12 12 12 11 11 12 13 13 13 13 13 13 14 14 15 16 16 16 16 16 17 17 17 17 18 18 19 19 19 20 21 21 22 23
9 11 12 12 13 13 13 13 13 14 13 13 13 13 13 14 14 15 15 14 15 14 15 16 16 17 18 18 18 18 19 19 19 19 19 20 21 21 22 23 24 25 25
8 10 12 13 13 14 14 14 14 14 14 14 14 14 14 14 14 15 15 15 15 16 16 17 17 18 19 19 19 20 20 20 21 21 21 22 23 24 24 25 26 26 27
8 9 11 13 14 14 14 14 15 15 15 15 15 15 14 14 15 15 16 16 16 16 17 18 18 19 20 21 20 21 21 22 22 23 24 25 25 26 27 28 27 28 28
7 9 10 11 13 14 14 15 15 16 15 15 15 15 15 16 16 16 17 17 17 18 18 19 20 20 21 22 22 23 23 24 24 24 25 25 26 27 29 29 29 29 30
7 8 9 11 12 13 14 14 15 15 15 16 17 17 17 17 17 18 18 18 19 19 18 20 21 22 22 23 23 23 24 24 25 26 26 26 28 29 29 29 29 30 30
8 9 9 11 12 13 14 15 15 16 16 17 17 18 19 19 19 19 20 20 20 20 20 20 21 22 23 23 24 24 24 25 26 27 27 27 28 28 28 28 29 29 29
10 10 11 11 12 13 13 15 17 18 18 18 18 18 19 19 20 20 21 21 21 22 22 21 22 23 25 25 25 25 25 26 26 27 27 27 27 28 28 28 29 29 30
12 12 12 13 13 14 15 16 17 17 18 19 19 19 20 20 20 21 21 22 22 22 23 23 23 24 25 26 26 26 27 27 28 28 28 28 28 28 29 29 29 30 32
13 13 13 13 14 15 15 16 17 18 18 19 20 21 21 21 21 21 21 22 23 23 24 25 25 25 26 26 27 28 28 29 29 29 29 29 28 29 29 30 31 32 33
14 14 15 14 15 15 16 17 18 17 18 19 21 22 22 22 22 22 22 23 23 24 25 26 26 26 27 27 28 29 29 30 29 30 31 30 30 30 30 31 32 33 33
15 15 15 15 15 16 17 18 18 19 19 19 20 21 22 22 22 23 23 24 24 25 26 27 27 28 28 28 29 29 30 30 30 31 31 31 31 32 32 32 33 33 33
17 17 17 17 17 17 18 18 19 20 20 20 20 21 22 22 23 24 25 25 25 26 27 28 28 28 28 29 29 30 31 32 31 30 31 32 33 34 34 34 33 32 33
19 19 18 18 19 19 19 19 19 20 21 22 22 23 23 24 24 25 26 26 27 28 29 29 29 29 30 30 30 31 32 32 32 31 32 33 33 34 34 33 33 33 34
21 21 21 21 20 20 20 21 21 22 22 23 23 24 24 24 25 27 28 28 29 29 29 30 30 31 31 32 33 33 33 33 33 33 33 34 34 34 33 33 34 35 35
Wind_Direction
211 210 202 200 205 215 204 190 185 185 181 176 162 172 189 169 171 176 175 180 180 181 185 208 219 224 219 204 214 225 244 255 258 265 269 273 271 266 271 279 284 285 287
216 214 203 203 207 212 208 199 196 196 196 196 190 197 208 204 204 201 199 195 193 191 199 223 226 234 231 226 231 241 247 259 267 270 270 267 269 270 274 280 284 282 282
211 209 209 205 205 206 207 209 207 201 202 203 204 206 218 231 223 213 211 207 207 212 228 246 243 243 246 251 250 250 253 262 268 267 267 269 271 273 277 281 282 281 281
204 208 206 206 209 210 209 212 216 210 214 212 212 219 223 226 227 229 227 225 228 234 243 256 254 254 257 262 264 263 259 261 265 269 269 270 273 275 277 281 283 284 283
215 215 213 213 212 214 216 221 223 227 230 230 230 231 231 232 239 246 243 243 244 249 254 260 256 262 266 265 268 269 268 264 266 273 275 271 274 279 279 281 285 288 286
220 218 220 220 219 220 223 228 231 235 240 241 241 239 242 247 251 256 255 253 252 252 254 257 261 265 267 268 269 271 270 268 269 274 276 276 277 280 282 286 286 286 287
224 222 222 222 223 226 228 233 239 237 241 243 242 245 247 255 255 255 258 257 255 258 260 258 259 261 265 268 270 272 271 272 273 275 277 279 280 279 280 284 284 283 285
228 224 228 228 227 228 231 234 240 243 246 244 242 244 249 254 256 255 257 259 260 261 261 259 262 263 265 269 272 274 274 275 276 275 277 280 281 281 283 286 283 283 285
234 234 232 233 230 231 232 234 241 245 249 249 246 246 249 253 255 258 260 261 262 261 260 259 262 262 265 270 273 273 274 275 276 276 277 278 281 282 283 284 285 285 284
238 234 228 229 230 232 234 238 242 247 252 254 252 250 253 255 257 260 263 260 259 260 261 262 264 265 267 270 272 273 273 273 275 277 278 280 281 282 283 283 285 285 284
239 234 229 228 230 235 237 239 243 248 252 257 256 254 256 258 259 261 263 265 263 261 262 265 267 268 270 268 270 273 273 273 274 276 278 281 281 282 282 282 282 282 283
238 233 232 233 234 239 241 242 245 250 253 255 257 258 260 262 263 263 264 266 268 265 265 268 268 268 271 273 274 274 273 273 275 277 279 280 280 281 281 280 281 281 282
242 235 234 236 237 240 243 246 250 254 253 254 258 261 261 264 266 266 269 270 271 268 269 272 271 272 273 273 274 276 276 276 277 278 279 280 280 280 279 280 281 282 282
248 243 242 240 241 243 245 249 253 256 255 255 259 263 265 267 267 267 268 271 271 271 270 272 273 274 275 276 276 276 276 278 279 279 280 281 281 280 281 282 282 282 282
258 250 245 244 245 247 250 254 256 259 259 259 261 264 265 268 270 269 269 269 270 270 270 271 274 276 275 275 276 277 275 277 279 279 280 280 281 281 281 282 282 282 283
272 262 256 253 250 251 253 256 258 261 262 263 265 268 269 271 270 270 271 270 271 272 272 271 272 275 278 276 275 277 277 278 279 280 281 281 282 283 283 282 283 283 283
281 271 266 261 259 259 261 260 261 262 262 265 267 268 268 269 269 269 271 272 274 274 274 273 274 276 278 277 276 277 277 278 281 283 281 282 282 284 283 284 283 283 283
291 284 279 272 266 265 263 262 263 264 264 267 269 270 270 268 270 272 272 272 273 273 275 276 277 277 278 279 278 277 278 280 282 283 284 282 284 284 283 282 283 284 284
292 285 279 277 272 269 270 268 269 266 264 267 268 270 271 270 270 274 274 275 274 274 276 279 278 278 279 280 279 279 280 281 282 282 282 282 283 286 285 284 285 284 285
297 290 287 279 276 271 269 272 274 270 267 267 269 270 272 273 273 275 277 278 278 276 277 279 280 280 281 282 282 283 283 283 281 282 283 283 283 285 285 285 285 286 287
297 292 292 286 280 276 272 276 279 273 270 268 270 271 274 274 275 275 277 279 278 279 279 280 282 281 282 283 284 285 285 283 281 282 282 284 285 287 286 285 286 287 289
305 297 295 289 286 283 279 279 281 277 273 272 272 273 275 274 274 275 277 279 279 280 280 281 283 284 283 284 284 286 285 284 285 283 282 283 285 286 287 287 287 287 289
309 301 297 293 289 287 285 281 280 281 279 275 273 274 275 276 276 277 279 280 279 280 281 282 283 283 285 285 285 285 286 286 286 284 283 284 285 285 286 287 287 289 289
309 304 300 295 292 289 285 281 280 282 282 280 279 278 278 278 279 280 281 282 282 283 282 282 282 283 285 286 286 287 287 286 284 285 286 285 284 286 286 286 287 289 290
305 304 301 298 295 291 286 283 283 283 282 281 280 280 280 280 281 282 283 283 284 284 283 283 283 283 285 286 286 287 287 287 285 287 287 287 287 288 288 287 287 289 290
304 301 300 298 297 294 289 285 283 285 285 285 284 282 281 282 283 283 283 284 284 285 285 285 284 284 284 285 286 287 287 286 285 286 286 287 287 287 287 287 287 290 290
Height
5912 5913 5913 5914 5915 5915 5915 5915 5916 5916 5916 5917 5917 5917 5917 5917 5917 5917 5917 5917 5917 5917 5917 5917 5916 5916 5916 5916 5916 5916 5916 5916 5915 5915 5914 5914 5913 5913 5912 5912 5911 5911 5910
5911 5912 5913 5913 5914 5914 5915 5915 5915 5916 5916 5916 5917 5917 5917 5917 5917 5917 5917 5917 5917 5917 5917 5916 5916 5916 5915 5915 5915 5915 5915 5915 5914 5914 5913 5913 5912 5912 5911 5911 5910 5910 5909
5911 5912 5912 5913 5914 5914 5915 5915 5915 5916 5916 5916 5916 5916 5916 5916 5916 5916 5916 5917 5917 5916 5916 5916 5915 5915 5915 5915 5914 5914 5914 5914 5913 5913 5912 5912 5911 5911 5910 5910 5909 5908 5908
5910 5911 5912 5912 5913 5913 5914 5915 5915 5915 5916 5916 5916 5916 5916 5916 5916 5916 5916 5916 5916 5916 5915 5915 5915 5915 5914 5914 5914 5913 5913 5912 5912 5912 5911 5910 5910 5909 5909 5908 5908 5907 5906
5908 5909 5910 5911 5912 5913 5913 5914 5914 5915 5915 5915 5915 5915 5915 5915 5915 5915 5915 5915 5915 5915 5914 5914 5914 5914 5913 5913 5912 5912 5911 5911 5911 5910 5909 5909 5908 5908 5907 5906 5906 5905 5904
5906 5908 5909 5910 5911 5912 5912 5913 5913 5914 5914 5914 5914 5914 5914 5915 5914 5914 5914 5914 5914 5913 5913 5913 5913 5913 5912 5912 5911 5911 5910 5910 5909 5908 5908 5907 5907 5906 5905 5905 5904 5903 5902
5905 5906 5907 5908 5909 5910 5911 5912 5912 5912 5912 5913 5913 5913 5913 5913 5913 5913 5913 5913 5912 5912 5912 5912 5911 5911 5911 5910 5909 5909 5908 5908 5907 5907 5906 5905 5905 5904 5903 5902 5901 5900 5899
5903 5904 5905 5907 5908 5908 5909 5910 5910 5911 5911 5911 5911 5911 5912 5913 5912 5912 5911 5911 5911 5910 5910 5910 5910 5909 5909 5908 5907 5907 5906 5905 5905 5904 5904 5903 5902 5902 5901 5900 5899 5897 5896
5901 5902 5903 5904 5905 5906 5907 5908 5908 5909 5909 5909 5909 5910 5910 5910 5910 5910 5909 5909 5909 5908 5908 5908 5907 5907 5906 5906 5905 5904 5903 5903 5902 5901 5901 5900 5899 5898 5898 5897 5895 5894 5893
5898 5899 5900 5902 5903 5904 5905 5906 5906 5907 5907 5907 5907 5907 5908 5908 5908 5907 5907 5907 5906 5906 5905 5905 5905 5904 5903 5903 5902 5901 5900 5900 5899 5898 5897 5896 5895 5895 5894 5893 5892 5890 5889
5896 5897 5898 5899 5900 5901 5902 5903 5903 5904 5904 5904 5905 5905 5905 5905 5905 5905 5904 5904 5904 5903 5903 5902 5902 5901 5900 5899 5898 5898 5897 5896 5896 5895 5894 5893 5892 5891 5890 5888 5887 5886 5884
5893 5894 5895 5897 5898 5899 5899 5900 5901 5901 5901 5901 5902 5902 5902 5902 5902 5902 5901 5901 5900 5900 5899 5899 5898 5897 5896 5895 5895 5894 5893 5892 5892 5891 5889 5888 5887 5886 5885 5883 5882 5880 5879
5891 5892 5893 5894 5895 5896 5896 5897 5897 5898 5898 5898 5898 5898 5898 5898 5898 5898 5898 5897 5897 5896 5896 5895 5894 5893 5892 5891 5890 5889 5888 5887 5887 5886 5884 5883 5882 5881 5879 5878 5876 5874 5873
5889 5889 5890 5891 5892 5893 5893 5894 5894 5894 5894 5894 5894 5894 5894 5894 5894 5894 5894 5893 5893 5892 5892 5891 5890 5889 5888 5887 5886 5884 5883 5882 5882 5880 5879 5878 5876 5875 5873 5871 5870 5868 5866
5886 5887 5887 5887 5888 5889 5890 5890 5890 5890 5890 5890 5891 5891 5890 5890 5890 5890 5889 5889 5889 5888 5887 5886 5885 5884 5883 5882 5880 5879 5878 5877 5876 5875 5873 5871 5870 5868 5867 5865 5863 5861 5859
5884 5884 5884 5884 5885 5885 5886 5886 5886 5886 5886 5886 5886 5887 5886 5886 5886 5885 5885 5884 5884 5883 5882 5881 5880 5879 5877 5876 5875 5873 5872 5871 5870 5868 5866 5864 5863 5861 5860 5858 5856 5854 5852
5882 5882 5881 5881 5882 5882 5882 5882 5882 5882 5882 5882 5882 5882 5882 5881 5881 5881 5880 5879 5878 5878 5877 5876 5874 5873 5872 5870 5869 5867 5866 5865 5863 5861 5860 5858 5856 5854 5852 5850 5848 5847 5845
5880 5879 5879 5878 5878 5878 5878 5878 5878 5878 5878 5878 5878 5877 5877 5876 5876 5875 5875 5874 5873 5872 5871 5870 5868 5867 5866 5864 5863 5861 5860 5858 5856 5855 5852 5850 5849 5847 5845 5843 5841 5839 5837
5877 5877 5876 5876 5875 5875 5874 5874 5874 5874 5874 5874 5873 5872 5872 5871 5871 5870 5869 5868 5867 5866 5865 5864 5863 5861 5860 5858 5856 5855 5853 5851 5849 5847 5845 5843 5841 5839 5837 5835 5833 5831 5829
5874 5873 5872 5872 5871 5871 5870 5870 5869 5869 5869 5868 5868 5867 5866 5866 5865 5864 5863 5862 5861 5860 5858 5857 5856 5854 5853 5851 5850 5848 5846 5844 5842 5840 5838 5836 5834 5831 5829 5827 5825 5823 5821
5871 5870 5869 5868 5867 5866 5866 5865 5864 5863 5863 5863 5862 5861 5861 5860 5859 5858 5857 5856 5854 5853 5852 5850 5849 5847 5846 5844 5842 5840 5838 5836 5834 5832 5830 5828 5826 5823 5821 5819 5817 5815 5812
5867 5866 5865 5864 5863 5862 5861 5860 5859 5858 5857 5857 5856 5855 5854 5853 5852 5851 5851 5849 5848 5846 5845 5843 5842 5840 5838 5836 5834 5832 5830 5828 5826 5824 5822 5820 5818 5815 5813 5811 5808 5806 5803
5863 5862 5861 5860 5858 5857 5856 5855 5854 5853 5852 5851 5850 5849 5848 5847 5846 5845 5844 5842 5841 5839 5837 5836 5834 5832 5830 5828 5826 5824 5822 5820 5817 5815 5813 5811 5809 5807 5805 5802 5799 5796 5794
5860 5858 5857 5855 5854 5852 5851 5850 5848 5847 5846 5845 5844 5842 5841 5840 5839 5837 5836 5835 5833 5831 5830 5828 5826 5824 5822 5820 5818 5816 5813 5810 5808 5807 5805 5803 5800 5798 5795 5793 5790 5787 5784
5856 5854 5852 5850 5849 5847 5845 5844 5842 5841 5840 5839 5837 5836 5834 5833 5832 5830 5829 5827 5826 5824 5821 5819 5817 5815 5813 5811 5809 5807 5805 5802 5800 5798 5796 5794 5791 5789 5786 5783 5781 5778 5775
5851 5849 5847 5845 5843 5841 5840 5838 5837 5835 5833 5832 5830 5828 5827 5825 5824 5822 5820 5819 5817 5815 5813 5811 5809 5807 5805 5802 5800 5798 5796 5793 5791 5789 5787 5784 5782 5779 5777 5774 5771 5768 5765